TimeMDT,TemperatureF,Dew PointF,Humidity,Sea Level PressureIn,VisibilityMPH,Wind Direction,Wind SpeedMPH,Gust SpeedMPH,PrecipitationIn,Events,Conditions,WindDirDegrees,DateUTC
12:54 AM,48.9,21.9,35,29.84,10.0,WNW,13.8,24.2,N/A,,Clear,300,2013-09-28 06:54:00
1:54 AM,46.9,21.0,36,29.87,10.0,NNW,13.8,19.6,N/A,,Clear,330,2013-09-28 07:54:00
2:54 AM,48.0,19.0,32,29.88,10.0,NNW,15.0,-,N/A,,Clear,330,2013-09-28 08:54:00
3:54 AM,45.0,19.9,37,29.92,10.0,North,6.9,-,N/A,,Clear,350,2013-09-28 09:54:00
4:54 AM,37.9,19.9,48,29.98,10.0,SSW,4.6,-,N/A,,Clear,210,2013-09-28 10:54:00
5:54 AM,39.0,19.9,46,30.01,10.0,South,3.5,-,N/A,,Clear,180,2013-09-28 11:54:00
6:54 AM,36.0,21.9,57,30.08,10.0,WSW,11.5,-,N/A,,Clear,250,2013-09-28 12:54:00
8:54 AM,48.9,23.0,36,30.09,10.0,WSW,10.4,-,N/A,,Clear,240,2013-09-28 14:54:00
9:54 AM,54.0,19.0,25,30.09,10.0,South,6.9,-,N/A,,Clear,170,2013-09-28 15:54:00
10:54 AM,57.0,17.1,21,30.08,10.0,ESE,6.9,-,N/A,,Clear,120,2013-09-28 16:54:00
11:54 AM,61.0,18.0,19,30.06,10.0,ESE,8.1,-,N/A,,Clear,110,2013-09-28 17:54:00
12:54 PM,64.9,18.0,16,30.03,10.0,SE,10.4,-,N/A,,Clear,130,2013-09-28 18:54:00
1:54 PM,69.1,16.0,13,29.99,10.0,SE,15.0,19.6,N/A,,Clear,130,2013-09-28 19:54:00
2:54 PM,71.1,15.1,12,29.97,10.0,SSE,9.2,17.3,N/A,,Clear,160,2013-09-28 20:54:00
3:54 PM,71.1,16.0,12,29.98,10.0,ESE,6.9,-,N/A,,Clear,110,2013-09-28 21:54:00
4:54 PM,70.0,16.0,13,30.01,10.0,ESE,5.8,-,N/A,,Clear,110,2013-09-28 22:54:00
5:54 PM,69.1,19.9,15,30.01,10.0,South,6.9,-,N/A,,Clear,180,2013-09-28 23:54:00
6:54 PM,59.0,23.0,25,30.06,10.0,WSW,5.8,-,N/A,,Clear,240,2013-09-29 00:54:00
7:54 PM,55.0,24.1,30,30.06,10.0,WSW,9.2,-,N/A,,Clear,240,2013-09-29 01:54:00
8:54 PM,57.0,28.0,33,30.05,10.0,WSW,11.5,-,N/A,,Clear,250,2013-09-29 02:54:00
9:54 PM,55.0,27.0,34,30.06,10.0,WSW,10.4,-,N/A,,Clear,240,2013-09-29 03:54:00
10:54 PM,55.0,26.1,33,30.05,10.0,WSW,15.0,-,N/A,,Clear,250,2013-09-29 04:54:00
11:54 PM,54.0,25.0,33,30.03,10.0,WSW,13.8,-,N/A,,Clear,250,2013-09-29 05:54:00